User: anonymous   Login
Location: Unspecified
(0.0000°N, 0.0000°E)
Time: 02:27:55
(UTC+02:00)
Language:

Timation 2 Rocket - Orbit

View from above orbital plane
View from above orbital plane
View from above satellite
View from above satellite

Ground track
Ground track

The orbit data is extracted from the following two-line orbital elements,

1  4159U 69082AB  17177.85073891 -.00000026 +00000-0 +24308-4 0  9998
2  4159 069.9617 136.6213 0113214 077.6427 283.7311 13.72376290388965
Epoch (UTC): 26 June 2017 20:25:03
Eccentricity: 0.0113214
inclination: 69.9617°
perigee height: 907 km
apogee height: 1074 km
right ascension of ascending node: 136.6213°
argument of perigee: 77.6427°
revolutions per day: 13.72376290
mean anomaly at epoch: 283.7311°
orbit number at epoch: 38896

The dashed part of the orbit path shows where the satellite is in the earth's shadow,  

DLR